Flag for U.S.A. Weather past 2 weeks in Chesapeake, Virginia, U.S.A.

Now
41 °F

Partly sunny.


Feels Like: 41 °F
Forecast: 29 / 48 °F
Wind: No wind

Location: Chesapeake Municipal Airport

Current Time: Mar 28, 2015 at 9:09:18 PM

Latest Report: Mar 28, 2015 at 8:15 PM


Visibility: 10 mi

Pressure: 30.15 "Hg

Humidity: 42%

Dew point: 19 °F

Location of ChesapeakeLocation

Historic Weather in Chesapeake — Graph

°F

Chesapeake temperature yesterday

Maximum temperature yesterday: 66 °F (at 12:15 AM)
Minimum temperature yesterday: 43 °F (at 6:35 PM)
Average temperature yesterday: 50 °F

Past Weeks' High & Low Weather Summary

 TemperatureHumidityPressure
High82 °F (Mar 17, 1:55 PM)100% (Mar 13, 11:35 PM)30.45 "Hg (Mar 13, 11:35 PM)
Low36 °F (Mar 16, 5:55 AM)21% (Mar 18, 4:15 PM)29.64 "Hg (Mar 27, 5:15 AM)
Average53 °F68%30.07 "Hg
* Reported Mar 13 7:15 PM — Mar 28 7:55 PM, Chesapeake, Weather by CustomWeather, © 2015

Note: Actual official high and low records may vary slightly from our data, if they occured in-between our weather recording intervals... More about our weather records

Advertising

Chesapeake weather history for previous 24 hours

 ConditionsComfort  
Time TempWeatherWind HumidityBarometerVisibility
7:55 PM
Sat, Mar 28
41 °FOvercast.3 mph39%30.14 "Hg10 mi
7:15 PM43 °FOvercast.9 mph39%30.11 "Hg10 mi
6:55 PM43 °FPartly sunny.9 mph36%30.09 "Hg10 mi
6:35 PM43 °FBroken clouds.14 mph39%30.08 "Hg10 mi
6:15 PM43 °FPartly sunny.6 mph42%30.08 "Hg10 mi
5:55 PM43 °FOvercast.8 mph42%30.07 "Hg10 mi
5:15 PM43 °FBroken clouds.8 mph46%30.05 "Hg10 mi
4:55 PM43 °FBroken clouds.10 mph49%30.05 "Hg10 mi
4:35 PM43 °FCloudy.12 mph53%30.05 "Hg10 mi
4:15 PM43 °FMore clouds than sun.12 mph53%30.04 "Hg10 mi
3:55 PM43 °FMostly cloudy.13 mph53%30.03 "Hg10 mi
3:35 PM43 °FPartly sunny.10 mph53%30.03 "Hg10 mi
3:15 PM43 °FBroken clouds.10 mph57%30.03 "Hg10 mi
2:55 PM43 °FMore clouds than sun.13 mph57%30.02 "Hg10 mi
2:15 PM43 °FOvercast.9 mph49%30.02 "Hg10 mi
1:55 PM43 °FOvercast.10 mph49%30.01 "Hg10 mi
1:35 PM43 °FOvercast.12 mph49%30.01 "Hg10 mi
1:15 PM43 °FOvercast.10 mph49%30.01 "Hg10 mi
12:55 PM43 °FPartly sunny.12 mph49%30.00 "Hg10 mi
12:35 PM45 °FPartly sunny.10 mph49%30.00 "Hg10 mi
12:15 PM43 °FMostly cloudy.8 mph53%30.00 "Hg10 mi
11:55 AM43 °FMostly cloudy.8 mph49%30.00 "Hg10 mi
11:35 AM43 °FMore clouds than sun.10 mph49%30.00 "Hg10 mi
11:15 AM43 °FScattered clouds.10 mph49%29.99 "Hg10 mi
10:55 AM43 °FScattered clouds.10 mph49%29.99 "Hg10 mi
10:15 AM43 °FScattered clouds.16 mph49%29.98 "Hg10 mi
9:55 AM43 °FBroken clouds.14 mph49%29.98 "Hg10 mi
9:35 AM43 °FMore clouds than sun.15 mph49%29.97 "Hg10 mi
9:15 AM43 °FMore clouds than sun.12 mph53%29.96 "Hg10 mi
8:55 AM43 °FMostly cloudy.12 mph53%29.95 "Hg10 mi
8:15 AM43 °FMostly cloudy.12 mph53%29.93 "Hg10 mi
7:55 AM43 °FMostly cloudy.9 mph61%29.92 "Hg10 mi
7:35 AM43 °FMostly cloudy.10 mph66%29.91 "Hg10 mi
7:15 AM43 °FMostly cloudy.5 mph66%29.90 "Hg10 mi
6:55 AM43 °FOvercast.10 mph61%29.89 "Hg10 mi
6:35 AM43 °FMostly cloudy.6 mph61%29.88 "Hg10 mi
6:15 AM43 °FOvercast.9 mph66%29.86 "Hg10 mi
5:55 AM43 °FOvercast.10 mph71%29.84 "Hg10 mi
5:35 AM43 °FPassing clouds.10 mph66%29.83 "Hg10 mi
5:15 AM43 °FPassing clouds.9 mph76%29.83 "Hg10 mi
4:55 AM43 °FClear.7 mph76%29.81 "Hg10 mi
4:15 AM43 °FClear.5 mph87%29.79 "Hg10 mi
3:55 AM43 °FPassing clouds.5 mph87%29.79 "Hg10 mi
3:35 AM43 °FPartly cloudy.6 mph93%29.80 "Hg10 mi
3:15 AM43 °FOvercast.6 mph93%29.79 "Hg10 mi
2:55 AM43 °FMostly cloudy.6 mph93%29.78 "Hg10 mi
2:35 AM43 °FMostly cloudy.7 mph93%29.79 "Hg7 mi
2:15 AM43 °FOvercast.7 mph93%29.79 "Hg7 mi
1:55 AM43 °FMostly cloudy.7 mph93%29.79 "Hg7 mi
1:15 AM45 °FMostly cloudy.3 mph87%29.79 "Hg7 mi
12:55 AM43 °FOvercast.3 mph93%29.79 "Hg7 mi
12:15 AM43 °FMostly cloudy.5 mph93%29.79 "Hg10 mi
11:15 PM
Fri, Mar 27
43 °FOvercast.3 mph93%29.79 "Hg10 mi
10:55 PM43 °FMostly cloudy.No wind93%29.79 "Hg10 mi
10:35 PM43 °FOvercast.5 mph93%29.79 "Hg10 mi
10:15 PM43 °FRain. Mostly cloudy.No wind93%29.80 "Hg10 mi
9:55 PM43 °FDrizzle. Low clouds.5 mph100%29.81 "Hg7 mi
9:15 PM43 °FFog.5 mph93%29.81 "Hg4 mi
Weather by CustomWeather, © 2015

See weather overviewHow to use our weather pages